Time,TemperatureF,DewpointF,PressureIn,WindDirection,WindDirectionDegrees,WindSpeedMPH,WindSpeedGustMPH,Humidity,HourlyPrecipIn,Conditions,Clouds,dailyrainin,SoftwareType,DateUTC
2013-01-02 00:00:00,46.0,26.4,30.09,East,87,0.0,5.0,46,0.00,,---,0.00,VWS V14.00,2013-01-02 08:00:00,
2013-01-02 00:01:00,47.3,23.6,30.10,East,79,0.0,3.0,39,0.00,,---,0.00,VWS V14.00,2013-01-02 08:01:00,
2013-01-02 00:15:00,47.4,24.0,30.11,NNW,346,0.0,2.0,40,0.00,,,0.00,weatherlink.com 1.10,2013-01-02 08:15:00,
2013-01-02 00:30:00,46.0,23.0,30.08,ESE,123,2.0,6.0,40,0.00,,---,0.00,VWS V14.00,2013-01-02 08:30:00,
2013-01-02 00:31:00,48.1,24.9,30.10,SE,128,0.0,3.0,40,0.00,,---,0.00,VWS V14.00,2013-01-02 08:31:00,
2013-01-02 00:32:00,47.9,24.0,30.10,SE,129,0.0,3.0,39,0.00,,,0.00,weatherlink.com 1.10,2013-01-02 08:32:00,
2013-01-02 00:50:00,47.0,24.0,30.10,SE,126,0.0,4.0,40,0.00,,,0.00,weatherlink.com 1.10,2013-01-02 08:50:00,
2013-01-02 01:00:00,45.1,23.4,30.07,ENE,61,0.0,3.0,42,0.00,,---,0.00,VWS V14.00,2013-01-02 09:00:00,
2013-01-02 01:01:00,46.0,26.4,30.09,East,87,0.0,5.0,46,0.00,,---,0.00,VWS V14.00,2013-01-02 09:01:00,
2013-01-02 01:07:00,46.7,25.0,30.09,ESE,105,2.0,4.0,42,0.00,,,0.00,weatherlink.com 1.10,2013-01-02 09:07:00,
2013-01-02 01:24:00,44.7,25.0,30.09,East,97,0.0,7.0,46,0.00,,,0.00,weatherlink.com 1.10,2013-01-02 09:24:00,
2013-01-02 01:30:00,46.8,24.9,30.07,ESE,123,5.0,5.0,42,0.00,,---,0.00,VWS V14.00,2013-01-02 09:30:00,
2013-01-02 01:31:00,46.0,23.0,30.08,ESE,123,2.0,6.0,40,0.00,,---,0.00,VWS V14.00,2013-01-02 09:31:00,
2013-01-02 01:42:00,46.1,25.0,30.08,East,89,0.0,3.0,44,0.00,,,0.00,weatherlink.com 1.10,2013-01-02 09:42:00,
2013-01-02 01:58:00,44.9,25.0,30.08,East,96,0.0,3.0,45,0.00,,,0.00,weatherlink.com 1.10,2013-01-02 09:58:00,
2013-01-02 02:00:00,46.1,24.3,30.05,NW,316,0.0,5.0,42,0.00,,---,0.00,VWS V14.00,2013-01-02 10:00:00,
2013-01-02 02:01:00,45.1,23.4,30.07,ENE,61,0.0,3.0,42,0.00,,---,0.00,VWS V14.00,2013-01-02 10:01:00,
2013-01-02 02:16:00,48.7,21.0,30.07,ENE,74,0.0,0.0,33,0.00,,,0.00,weatherlink.com 1.10,2013-01-02 10:16:00,
2013-01-02 02:30:00,44.5,24.0,30.05,SE,136,1.0,4.0,44,0.00,,---,0.00,VWS V14.00,2013-01-02 10:30:00,
2013-01-02 02:31:00,46.8,24.9,30.07,ESE,123,5.0,5.0,42,0.00,,---,0.00,VWS V14.00,2013-01-02 10:31:00,
2013-01-02 02:50:00,44.5,25.0,30.06,NW,316,2.0,2.0,47,0.00,,,0.00,weatherlink.com 1.10,2013-01-02 10:50:00,
2013-01-02 03:00:00,47.7,21.4,30.04,NNW,346,0.0,3.0,35,0.00,,---,0.00,VWS V14.00,2013-01-02 11:00:00,
2013-01-02 03:01:00,46.1,24.3,30.05,NW,316,0.0,5.0,42,0.00,,---,0.00,VWS V14.00,2013-01-02 11:01:00,
2013-01-02 03:07:00,45.7,25.0,30.05,SE,131,0.0,2.0,45,0.00,,,0.00,weatherlink.com 1.10,2013-01-02 11:07:00,
2013-01-02 03:25:00,45.0,25.0,30.05,SE,128,0.0,3.0,45,0.00,,,0.00,weatherlink.com 1.10,2013-01-02 11:25:00,
2013-01-02 03:30:00,49.1,21.2,30.04,NNE,17,1.0,4.0,33,0.00,,---,0.00,VWS V14.00,2013-01-02 11:30:00,
2013-01-02 03:31:00,44.5,24.0,30.05,SE,136,1.0,4.0,44,0.00,,---,0.00,VWS V14.00,2013-01-02 11:31:00,
2013-01-02 03:41:00,43.9,23.0,30.05,ENE,76,0.0,3.0,44,0.00,,,0.00,weatherlink.com 1.10,2013-01-02 11:41:00,
2013-01-02 03:59:00,47.6,22.0,30.04,NW,322,0.0,2.0,37,0.00,,,0.00,weatherlink.com 1.10,2013-01-02 11:59:00,
2013-01-02 04:00:00,49.9,18.9,30.03,ENE,67,2.0,7.0,29,0.00,,---,0.00,VWS V14.00,2013-01-02 12:00:00,
2013-01-02 04:01:00,47.7,21.4,30.04,NNW,346,0.0,3.0,35,0.00,,---,0.00,VWS V14.00,2013-01-02 12:01:00,
2013-01-02 04:16:00,47.6,22.0,30.04,NW,313,2.0,4.0,36,0.00,,,0.00,weatherlink.com 1.10,2013-01-02 12:16:00,
2013-01-02 04:30:00,48.8,21.0,30.03,ESE,107,0.0,7.0,33,0.00,,---,0.00,VWS V14.00,2013-01-02 12:30:00,
2013-01-02 04:31:00,49.1,21.3,30.04,NNE,17,1.0,4.0,33,0.00,,---,0.00,VWS V14.00,2013-01-02 12:31:00,
2013-01-02 04:33:00,49.2,20.0,30.04,NE,38,3.0,3.0,32,0.00,,,0.00,weatherlink.com 1.10,2013-01-02 12:33:00,
2013-01-02 04:50:00,49.3,21.0,30.04,ENE,58,0.0,3.0,33,0.00,,,0.00,weatherlink.com 1.10,2013-01-02 12:50:00,
2013-01-02 05:00:00,51.0,19.1,30.03,East,91,0.0,8.0,28,0.00,,---,0.00,VWS V14.00,2013-01-02 13:00:00,
2013-01-02 05:01:00,49.9,18.9,30.03,ENE,67,2.0,7.0,29,0.00,,---,0.00,VWS V14.00,2013-01-02 13:01:00,
2013-01-02 05:08:00,50.7,18.0,30.04,East,86,2.0,5.0,28,0.00,,,0.00,weatherlink.com 1.10,2013-01-02 13:08:00,
2013-01-02 05:24:00,50.1,20.0,30.03,East,95,1.0,3.0,31,0.00,,,0.00,weatherlink.com 1.10,2013-01-02 13:24:00,
2013-01-02 05:30:00,49.2,19.1,30.03,NE,54,1.0,3.0,30,0.00,,---,0.00,VWS V14.00,2013-01-02 13:30:00,
2013-01-02 05:31:00,48.8,21.0,30.03,ESE,107,0.0,7.0,33,0.00,,---,0.00,VWS V14.00,2013-01-02 13:31:00,
2013-01-02 05:42:00,48.9,19.0,30.04,ESE,103,2.0,8.0,30,0.00,,,0.00,weatherlink.com 1.10,2013-01-02 13:42:00,
2013-01-02 06:00:00,51.0,19.0,30.03,East,100,0.0,4.0,28,0.00,,,0.00,weatherlink.com 1.10,2013-01-02 14:00:00,
2013-01-02 06:17:00,48.7,21.0,30.02,ENE,57,0.0,3.0,33,0.00,,,0.00,weatherlink.com 1.10,2013-01-02 14:17:00,
2013-01-02 06:30:00,52.8,18.9,30.04,East,88,0.0,9.0,26,0.00,,---,0.00,VWS V14.00,2013-01-02 14:30:00,
2013-01-02 06:31:00,49.2,19.1,30.03,NE,54,1.0,3.0,30,0.00,,---,0.00,VWS V14.00,2013-01-02 14:31:00,
2013-01-02 06:34:00,49.7,18.0,30.04,NE,36,0.0,4.0,29,0.00,,,0.00,weatherlink.com 1.10,2013-01-02 14:34:00,
2013-01-02 06:51:00,51.9,18.0,30.04,ENE,73,5.0,8.0,26,0.00,,,0.00,weatherlink.com 1.10,2013-01-02 14:51:00,
2013-01-02 07:00:00,54.2,21.0,30.05,WNW,284,2.0,5.0,27,0.00,,---,0.00,VWS V14.00,2013-01-02 15:00:00,
2013-01-02 07:01:00,52.1,18.3,30.03,East,81,5.0,10.0,26,0.00,,---,0.00,VWS V14.00,2013-01-02 15:01:00,
2013-01-02 07:25:00,52.4,19.0,30.04,ESE,112,0.0,7.0,27,0.00,,,0.00,weatherlink.com 1.10,2013-01-02 15:25:00,
2013-01-02 07:30:00,54.5,26.7,30.06,West,279,3.0,4.0,34,0.00,,---,0.00,VWS V14.00,2013-01-02 15:30:00,
2013-01-02 07:31:00,52.8,18.9,30.04,East,88,0.0,9.0,26,0.00,,---,0.00,VWS V14.00,2013-01-02 15:31:00,
2013-01-02 07:43:00,53.8,19.0,30.04,East,98,2.0,5.0,26,0.00,,,0.00,weatherlink.com 1.10,2013-01-02 15:43:00,
2013-01-02 08:00:00,55.7,31.1,30.07,West,268,2.0,6.0,39,0.00,,---,0.00,VWS V14.00,2013-01-02 16:00:00,
2013-01-02 08:01:00,54.3,21.0,30.05,WNW,287,0.0,3.0,27,0.00,,,0.00,weatherlink.com 1.10,2013-01-02 16:01:00,
2013-01-02 08:17:00,54.4,23.0,30.05,WNW,285,2.0,3.0,29,0.00,,,0.00,weatherlink.com 1.10,2013-01-02 16:17:00,
2013-01-02 08:30:00,56.1,32.7,30.07,West,267,2.0,8.0,41,0.00,,---,0.00,VWS V14.00,2013-01-02 16:30:00,
2013-01-02 08:31:00,54.5,26.7,30.06,West,279,3.0,4.0,34,0.00,,---,0.00,VWS V14.00,2013-01-02 16:31:00,
2013-01-02 08:52:00,55.0,31.0,30.07,WSW,258,2.0,4.0,40,0.00,,,0.00,weatherlink.com 1.10,2013-01-02 16:52:00,
2013-01-02 09:00:00,56.7,36.2,30.08,WSW,246,6.0,11.0,46,0.00,,---,0.00,VWS V14.00,2013-01-02 17:00:00,
2013-01-02 09:01:00,55.7,31.1,30.07,West,268,2.0,6.0,39,0.00,,---,0.00,VWS V14.00,2013-01-02 17:01:00,
2013-01-02 09:09:00,55.6,32.0,30.07,West,259,5.0,6.0,41,0.00,,,0.00,weatherlink.com 1.10,2013-01-02 17:09:00,
2013-01-02 09:27:00,56.0,34.0,30.07,WSW,239,3.0,6.0,43,0.00,,,0.00,weatherlink.com 1.10,2013-01-02 17:27:00,
2013-01-02 09:30:00,57.1,36.5,30.08,WNW,302,6.0,13.0,46,0.00,,---,0.00,VWS V14.00,2013-01-02 17:30:00,
2013-01-02 09:31:00,56.1,32.7,30.07,West,267,2.0,8.0,41,0.00,,---,0.00,VWS V14.00,2013-01-02 17:31:00,
2013-01-02 09:43:00,56.6,32.0,30.07,West,272,9.0,11.0,40,0.00,,,0.00,weatherlink.com 1.10,2013-01-02 17:43:00,
2013-01-02 10:00:00,57.7,35.4,30.07,WNW,294,9.0,12.0,43,0.00,,---,0.00,VWS V14.00,2013-01-02 18:00:00,
2013-01-02 10:01:00,56.7,36.0,30.08,WSW,246,7.0,12.0,47,0.00,,,0.00,weatherlink.com 1.10,2013-01-02 18:01:00,
2013-01-02 10:19:00,57.1,39.0,30.08,West,261,7.0,12.0,51,0.00,,,0.00,weatherlink.com 1.10,2013-01-02 18:19:00,
2013-01-02 10:30:00,57.6,35.9,30.06,West,268,4.0,13.0,44,0.00,,---,0.00,VWS V14.00,2013-01-02 18:30:00,
2013-01-02 10:31:00,57.1,36.5,30.08,WNW,302,6.0,13.0,46,0.00,,---,0.00,VWS V14.00,2013-01-02 18:31:00,
2013-01-02 10:35:00,57.3,36.0,30.08,NW,304,8.0,11.0,46,0.00,,,0.00,weatherlink.com 1.10,2013-01-02 18:35:00,
2013-01-02 10:53:00,57.8,36.0,30.07,West,273,8.0,12.0,45,0.00,,,0.00,weatherlink.com 1.10,2013-01-02 18:53:00,
2013-01-02 11:00:00,58.3,28.6,30.05,WNW,292,8.0,12.0,32,0.00,,---,0.00,VWS V14.00,2013-01-02 19:00:00,
2013-01-02 11:01:00,57.7,35.4,30.07,WNW,294,9.0,12.0,43,0.00,,---,0.00,VWS V14.00,2013-01-02 19:01:00,
2013-01-02 11:10:00,57.7,37.0,30.07,WNW,298,5.0,11.0,46,0.00,,,0.00,weatherlink.com 1.10,2013-01-02 19:10:00,
2013-01-02 11:28:00,57.5,36.0,30.07,WNW,300,5.0,11.0,45,0.00,,,0.00,weatherlink.com 1.10,2013-01-02 19:28:00,
2013-01-02 11:30:00,58.2,32.7,30.04,West,270,11.0,14.0,38,0.00,,---,0.00,VWS V14.00,2013-01-02 19:30:00,
2013-01-02 11:31:00,57.6,35.9,30.06,West,268,4.0,13.0,44,0.00,,---,0.00,VWS V14.00,2013-01-02 19:31:00,
2013-01-02 11:44:00,58.1,31.0,30.06,WSW,246,5.0,11.0,36,0.00,,,0.00,weatherlink.com 1.10,2013-01-02 19:44:00,
2013-01-02 12:00:00,58.9,35.9,30.03,WSW,256,9.0,14.0,42,0.00,,---,0.00,VWS V14.00,2013-01-02 20:00:00,
2013-01-02 12:01:00,58.3,28.6,30.05,WNW,292,8.0,12.0,32,0.00,,---,0.00,VWS V14.00,2013-01-02 20:01:00,
2013-01-02 12:02:00,58.3,30.0,30.05,WNW,297,7.0,12.0,34,0.00,,,0.00,weatherlink.com 1.10,2013-01-02 20:02:00,
2013-01-02 12:19:00,59.2,33.0,30.05,WNW,300,8.0,11.0,37,0.00,,,0.00,weatherlink.com 1.10,2013-01-02 20:19:00,
2013-01-02 12:30:00,59.5,31.9,30.03,WSW,238,9.0,15.0,35,0.00,,---,0.00,VWS V14.00,2013-01-02 20:30:00,
2013-01-02 12:31:00,58.2,32.7,30.04,West,270,11.0,14.0,38,0.00,,---,0.00,VWS V14.00,2013-01-02 20:31:00,
2013-01-02 12:53:00,59.1,35.0,30.04,WNW,287,13.0,14.0,41,0.00,,,0.00,weatherlink.com 1.10,2013-01-02 20:53:00,
2013-01-02 13:00:00,59.7,22.9,30.02,WNW,302,10.0,15.0,24,0.00,,---,0.00,VWS V14.00,2013-01-02 21:00:00,
2013-01-02 13:01:00,58.9,35.9,30.03,WSW,256,9.0,14.0,42,0.00,,---,0.00,VWS V14.00,2013-01-02 21:01:00,
2013-01-02 13:11:00,59.2,30.0,30.04,NW,317,12.0,15.0,33,0.00,,,0.00,weatherlink.com 1.10,2013-01-02 21:11:00,
2013-01-02 13:28:00,59.6,32.0,30.03,West,269,7.0,15.0,36,0.00,,,0.00,weatherlink.com 1.10,2013-01-02 21:28:00,
2013-01-02 13:30:00,60.2,28.7,30.03,NW,307,3.0,16.0,30,0.00,,---,0.00,VWS V14.00,2013-01-02 21:30:00,
2013-01-02 13:31:00,59.5,31.9,30.03,WSW,238,9.0,15.0,35,0.00,,---,0.00,VWS V14.00,2013-01-02 21:31:00,
2013-01-02 13:46:00,59.4,31.0,30.03,WNW,298,12.0,14.0,34,0.00,,,0.00,weatherlink.com 1.10,2013-01-02 21:46:00,
2013-01-02 14:00:00,61.4,21.1,30.02,NW,310,4.0,13.0,21,0.00,,---,0.00,VWS V14.00,2013-01-02 22:00:00,
2013-01-02 14:01:00,59.7,22.9,30.02,WNW,302,10.0,15.0,24,0.00,,---,0.00,VWS V14.00,2013-01-02 22:01:00,
2013-01-02 14:02:00,59.7,23.0,30.02,WNW,297,12.0,15.0,24,0.00,,,0.00,weatherlink.com 1.10,2013-01-02 22:02:00,
2013-01-02 14:20:00,59.4,31.0,30.03,West,276,7.0,15.0,34,0.00,,,0.00,weatherlink.com 1.10,2013-01-02 22:20:00,
2013-01-02 14:30:00,61.0,28.5,30.03,WNW,291,4.0,12.0,29,0.00,,---,0.00,VWS V14.00,2013-01-02 22:30:00,
2013-01-02 14:31:00,60.2,28.7,30.03,NW,307,3.0,16.0,30,0.00,,---,0.00,VWS V14.00,2013-01-02 22:31:00,
2013-01-02 14:37:00,60.7,30.0,30.03,NW,318,13.0,14.0,31,0.00,,,0.00,weatherlink.com 1.10,2013-01-02 22:37:00,
2013-01-02 14:54:00,61.2,23.0,30.02,WNW,294,3.0,12.0,23,0.00,,,0.00,weatherlink.com 1.10,2013-01-02 22:54:00,
2013-01-02 15:00:00,58.1,44.7,30.03,WNW,284,4.0,13.0,61,0.00,,---,0.00,VWS V14.00,2013-01-02 23:00:00,
2013-01-02 15:01:00,61.4,21.1,30.02,NW,310,4.0,13.0,21,0.00,,---,0.00,VWS V14.00,2013-01-02 23:01:00,
2013-01-02 15:12:00,61.4,22.0,30.02,WNW,292,4.0,11.0,22,0.00,,,0.00,weatherlink.com 1.10,2013-01-02 23:12:00,
2013-01-02 15:29:00,61.0,27.0,30.02,West,277,4.0,12.0,28,0.00,,,0.00,weatherlink.com 1.10,2013-01-02 23:29:00,
2013-01-02 15:30:00,57.7,42.6,30.03,WSW,248,7.0,8.0,57,0.00,,---,0.00,VWS V14.00,2013-01-02 23:30:00,
2013-01-02 15:31:00,61.0,28.5,30.03,WNW,291,4.0,12.0,29,0.00,,---,0.00,VWS V14.00,2013-01-02 23:31:00,
2013-01-02 15:46:00,59.0,40.0,30.03,West,265,3.0,13.0,50,0.00,,,0.00,weatherlink.com 1.10,2013-01-02 23:46:00,
2013-01-02 16:00:00,56.8,32.8,30.03,WNW,295,2.0,9.0,40,0.00,,---,0.00,VWS V14.00,2013-01-03 00:00:00,
2013-01-02 16:01:00,58.1,44.7,30.03,WNW,284,4.0,13.0,61,0.00,,---,0.00,VWS V14.00,2013-01-03 00:01:00,
2013-01-02 16:21:00,57.9,42.0,30.03,WNW,284,3.0,6.0,56,0.00,,,0.00,weatherlink.com 1.10,2013-01-03 00:21:00,
2013-01-02 16:30:00,56.3,25.3,30.03,NW,317,0.0,6.0,30,0.00,,---,0.00,VWS V14.00,2013-01-03 00:30:00,
2013-01-02 16:31:00,57.7,42.6,30.03,WSW,248,7.0,8.0,57,0.00,,---,0.00,VWS V14.00,2013-01-03 00:31:00,
2013-01-02 16:38:00,57.1,42.0,30.03,WSW,258,6.0,8.0,58,0.00,,,0.00,weatherlink.com 1.10,2013-01-03 00:38:00,
2013-01-02 16:55:00,56.6,37.0,30.03,WNW,289,6.0,9.0,49,0.00,,,0.00,weatherlink.com 1.10,2013-01-03 00:55:00,
2013-01-02 17:00:00,55.7,35.3,30.03,WNW,299,3.0,9.0,46,0.00,,---,0.00,VWS V14.00,2013-01-03 01:00:00,
2013-01-02 17:01:00,56.8,32.8,30.03,WNW,295,2.0,9.0,40,0.00,,---,0.00,VWS V14.00,2013-01-03 01:01:00,
2013-01-02 17:13:00,56.7,29.0,30.03,WNW,284,3.0,5.0,35,0.00,,,0.00,weatherlink.com 1.10,2013-01-03 01:13:00,
2013-01-02 17:30:00,56.3,26.0,30.02,NW,316,0.0,3.0,31,0.00,,,0.00,weatherlink.com 1.10,2013-01-03 01:30:00,
2013-01-02 17:31:00,56.3,25.3,30.03,NW,317,0.0,6.0,30,0.00,,---,0.00,VWS V14.00,2013-01-03 01:31:00,
2013-01-02 17:47:00,55.8,26.0,30.03,NW,314,2.0,6.0,32,0.00,,,0.00,weatherlink.com 1.10,2013-01-03 01:47:00,
2013-01-02 18:00:00,55.1,31.2,30.04,NNE,16,0.0,4.0,40,0.00,,---,0.00,VWS V14.00,2013-01-03 02:00:00,
2013-01-02 18:01:00,55.7,35.3,30.03,WNW,299,3.0,9.0,46,0.00,,---,0.00,VWS V14.00,2013-01-03 02:01:00,
2013-01-02 18:21:00,55.0,33.0,30.04,NNW,331,0.0,4.0,44,0.00,,,0.00,weatherlink.com 1.10,2013-01-03 02:21:00,
2013-01-02 18:30:00,54.2,38.4,30.04,NNW,341,0.0,9.0,55,0.00,,---,0.00,VWS V14.00,2013-01-03 02:30:00,
2013-01-02 18:31:00,55.0,32.3,30.04,NW,321,1.0,4.0,42,0.00,,---,0.00,VWS V14.00,2013-01-03 02:31:00,
2013-01-02 18:38:00,55.1,30.0,30.04,NW,311,2.0,3.0,39,0.00,,,0.00,weatherlink.com 1.10,2013-01-03 02:38:00,
2013-01-02 18:56:00,55.4,30.0,30.04,North,355,0.0,4.0,38,0.00,,,0.00,weatherlink.com 1.10,2013-01-03 02:56:00,
2013-01-02 19:00:00,50.0,33.1,30.04,ENE,74,1.0,3.0,52,0.00,,---,0.00,VWS V14.00,2013-01-03 03:00:00,
2013-01-02 19:01:00,55.1,31.2,30.04,NNE,16,0.0,4.0,40,0.00,,---,0.00,VWS V14.00,2013-01-03 03:01:00,
2013-01-02 19:12:00,54.6,35.0,30.04,NW,313,4.0,9.0,48,0.00,,,0.00,weatherlink.com 1.10,2013-01-03 03:12:00,
2013-01-02 19:30:00,48.5,34.4,30.04,ESE,109,3.0,4.0,58,0.00,,---,0.00,VWS V14.00,2013-01-03 03:30:00,
2013-01-02 19:31:00,54.2,38.4,30.04,NNW,341,0.0,9.0,55,0.00,,---,0.00,VWS V14.00,2013-01-03 03:31:00,
2013-01-02 19:47:00,51.2,32.0,30.04,ENE,75,1.0,4.0,49,0.00,,,0.00,weatherlink.com 1.10,2013-01-03 03:47:00,
2013-01-02 20:00:00,44.6,35.1,30.03,ESE,102,0.0,5.0,69,0.00,,---,0.00,VWS V14.00,2013-01-03 04:00:00,
2013-01-02 20:01:00,50.0,33.1,30.04,ENE,74,1.0,3.0,52,0.00,,---,0.00,VWS V14.00,2013-01-03 04:01:00,
2013-01-02 20:04:00,49.9,33.0,30.04,SE,126,3.0,4.0,52,0.00,,,0.00,weatherlink.com 1.10,2013-01-03 04:04:00,
2013-01-02 20:21:00,48.7,35.0,30.04,NE,45,1.0,2.0,60,0.00,,,0.00,weatherlink.com 1.10,2013-01-03 04:21:00,
2013-01-02 20:30:00,46.4,33.7,30.04,SE,127,0.0,4.0,61,0.00,,---,0.00,VWS V14.00,2013-01-03 04:30:00,
2013-01-02 20:31:00,48.5,34.4,30.04,ESE,109,3.0,4.0,58,0.00,,---,0.00,VWS V14.00,2013-01-03 04:31:00,
2013-01-02 20:37:00,46.5,33.0,30.04,ESE,102,1.0,5.0,60,0.00,,,0.00,weatherlink.com 1.10,2013-01-03 04:37:00,
2013-01-02 20:55:00,44.1,34.0,30.04,East,99,2.0,5.0,67,0.00,,,0.00,weatherlink.com 1.10,2013-01-03 04:55:00,
2013-01-02 21:00:00,42.7,32.9,30.03,ESE,119,2.0,5.0,68,0.00,,---,0.00,VWS V14.00,2013-01-03 05:00:00,
2013-01-02 21:12:00,45.5,33.0,30.03,ESE,103,1.0,5.0,62,0.00,,,0.00,weatherlink.com 1.10,2013-01-03 05:12:00,
2013-01-02 21:28:00,46.1,33.0,30.03,NNE,27,0.0,2.0,61,0.00,,,0.00,weatherlink.com 1.10,2013-01-03 05:28:00,
2013-01-02 21:30:00,46.4,31.1,30.03,ESE,119,1.0,5.0,55,0.00,,---,0.00,VWS V14.00,2013-01-03 05:30:00,
2013-01-02 21:46:00,43.6,33.0,30.03,ESE,115,4.0,5.0,66,0.00,,,0.00,weatherlink.com 1.10,2013-01-03 05:46:00,
2013-01-02 22:00:00,41.2,31.8,30.03,ESE,116,1.0,6.0,69,0.00,,---,0.00,VWS V14.00,2013-01-03 06:00:00,
2013-01-02 22:01:00,42.7,32.9,30.03,ESE,119,2.0,5.0,68,0.00,,---,0.00,VWS V14.00,2013-01-03 06:01:00,
2013-01-02 22:02:00,42.7,33.0,30.03,ESE,103,1.0,5.0,68,0.00,,,0.00,weatherlink.com 1.10,2013-01-03 06:02:00,
2013-01-02 22:20:00,44.7,32.0,30.03,ESE,119,0.0,3.0,61,0.00,,,0.00,weatherlink.com 1.10,2013-01-03 06:20:00,
2013-01-02 22:30:00,43.1,32.2,30.04,ESE,110,3.0,4.0,65,0.00,,---,0.00,VWS V14.00,2013-01-03 06:30:00,
2013-01-02 22:31:00,46.4,31.1,30.03,ESE,119,1.0,5.0,55,0.00,,---,0.00,VWS V14.00,2013-01-03 06:31:00,
2013-01-02 22:38:00,46.5,31.0,30.03,SE,131,1.0,3.0,56,0.00,,,0.00,weatherlink.com 1.10,2013-01-03 06:38:00,
2013-01-02 22:54:00,41.9,32.0,30.03,ESE,115,4.0,5.0,67,0.00,,,0.00,weatherlink.com 1.10,2013-01-03 06:54:00,
2013-01-02 23:00:00,42.4,32.2,30.04,ESE,122,0.0,4.0,67,0.00,,---,0.00,VWS V14.00,2013-01-03 07:00:00,
2013-01-02 23:01:00,41.2,31.8,30.03,ESE,116,1.0,6.0,69,0.00,,---,0.00,VWS V14.00,2013-01-03 07:01:00,
2013-01-02 23:12:00,41.6,32.0,30.03,ESE,113,1.0,3.0,69,0.00,,,0.00,weatherlink.com 1.10,2013-01-03 07:12:00,
2013-01-02 23:29:00,43.5,32.0,30.04,ESE,106,3.0,3.0,65,0.00,,,0.00,weatherlink.com 1.10,2013-01-03 07:29:00,
2013-01-02 23:30:00,39.3,31.0,30.04,ESE,116,5.0,5.0,72,0.00,,---,0.00,VWS V14.00,2013-01-03 07:30:00,
2013-01-02 23:31:00,43.1,32.2,30.04,ESE,110,3.0,4.0,65,0.00,,---,0.00,VWS V14.00,2013-01-03 07:31:00,
2013-01-02 23:46:00,42.5,32.0,30.04,ESE,104,0.0,4.0,67,0.00,,,0.00,weatherlink.com 1.10,2013-01-03 07:46:00,